Location: ActonStarParty
(42.4766°N, 71.4538°W)
Time: 19:34:15
(UTC-05:00)

ATLAS 5 CENTAUR R/B - Visible Passes

Search period start: 16 December 2017 00:00
Search period end: 26 December 2017 00:00
Orbit: 310 x 14412 km, 60.9° (Epoch: 25 July)

Date Brightness Start Highest point End Pass type
(mag) Time Alt. Az. Time Alt. Az. Time Alt. Az.
16 Dec 6.6 02:00:06 44° NW 02:13:53 56° N 04:22:59 10° ESE visible
16 Dec 7.5 06:32:18 10° NW 07:35:07 71° W 09:22:08 10° S visible
16 Dec 7.3 19:47:32 14° NE 19:47:32 14° NE 19:53:01 10° NE visible
17 Dec 6.5 00:14:24 58° N 00:14:24 58° N 01:43:20 10° ENE visible
17 Dec 7.2 04:41:16 13° NW 05:36:11 83° ENE 07:34:48 10° SSE visible
17 Dec 6.7 22:28:40 46° NE 22:28:40 46° NE 23:09:49 10° NE visible
18 Dec 6.9 02:55:32 31° NW 03:25:29 63° NNE 05:36:36 10° SE visible
18 Dec 7.0 20:42:56 25° NE 20:42:56 25° NE 21:00:13 10° NE visible
19 Dec 6.6 01:09:47 51° NNW 01:16:56 55° N 03:18:04 10° E visible
19 Dec 7.4 05:39:32 10° NW 06:41:07 79° WSW 08:31:52 10° S visible
19 Dec 6.5 23:24:00 56° NNE 23:24:00 56° NNE 00:33:04 10° ENE visible
20 Dec 7.1 03:50:50 19° NW 04:38:07 76° NE 06:41:17 10° SSE visible
20 Dec 6.8 21:38:11 38° NE 21:38:11 38° NE 22:09:29 10° NE visible
21 Dec 6.8 02:05:01 38° NW 02:26:14 59° NNE 04:38:07 10° ESE visible
21 Dec 7.6 06:39:06 10° NW 07:40:49 62° W 09:24:11 10° SSW visible
21 Dec 7.2 19:52:19 19° NE 19:52:19 19° NE 20:03:24 10° NE visible
22 Dec 6.5 00:19:09 55° NNW 00:20:58 56° N 02:08:56 10° E visible
22 Dec 7.4 04:46:45 10° NW 05:45:50 88° WSW 07:40:28 10° S visible
22 Dec 6.6 22:33:16 51° NNE 22:33:16 51° NNE 23:26:15 10° NE visible
23 Dec 7.1 03:00:04 24° NW 03:38:51 69° NE 05:46:27 10° SE visible
23 Dec 6.9 20:47:18 32° NE 20:47:18 32° NE 21:10:52 10° NE visible
24 Dec 6.7 01:14:07 44° NW 01:27:55 56° NNE 03:36:46 10° ESE visible
24 Dec 7.5 05:46:02 10° NW 06:47:45 70° W 08:35:03 10° S visible
24 Dec 7.2 19:01:19 14° NE 19:01:19 14° NE 19:06:31 10° NE visible
24 Dec 6.5 23:28:06 57° N 23:28:06 57° N 00:57:06 10° ENE visible
25 Dec 7.3 03:54:54 12° NW 04:49:08 84° ENE 06:47:57 10° SSE visible
25 Dec 6.6 21:42:02 46° NE 21:42:02 46° NE 22:22:57 10° NE visible
